Location: B�hl
(48.6968°N, 8.1352°E)
Time: 22:22:30
(UTC+00:00)

Resurs 01 Rocket - Pass Details

Date: 08 March 2021
Orbit: 635 x 643 km, 98.0° (Epoch: 14 April)

Event Time Altitude Azimuth Distance (km) Brightness Sun altitude
Exits shadow 19:31:42 46° 52° (NE) 855 2.0 -21.9°
Drops below altitude 10° 19:35:33 10° 357° (N) 2,037 4.5 -22.5°
Sets 19:37:49 0° 351° (N) 2,952 5.4 -22.8°
